Torna al catalogo

STARLINK-36377

AttivoComunicazioniSSO
NORAD 67812·PAYLOAD·🇺🇸 United States

Lanciato Feb 15, 2026 da Vandenberg Space Force Base

Loading…

Prossimi Passaggi (prossime 24 ore)

TLE

AggiornatoSource: CelesTrak SupGP

Epoca: Sep 15, 2026, 02:37 UTC

1 67812C 26032R   26258.10951389 -.00039378  00000+0 -12224-2 0  2588
2 67812  97.2858  84.6430 0001643  91.4267 231.2672 15.33457469    14

Traccia STARLINK-36377 in tempo reale con AllMySat

Download on the App Store